| time (UTC) | temp F | wind direction | speed MPH | gust MPH | rain 1hr in | rain 24hr in | rain mn in | humidity % | barometer mb |
| 20260504141003 | 65 | 61 | 2.0 | 4.0 | 0.00 | 0.00 | 0.00 | 50 | 1017.2 |
| 20260504140503 | 64 | 63 | 2.0 | 4.0 | 0.00 | 0.00 | 0.00 | 49 | 1017.2 |
| 20260504130504 | 58 | 20 | 1.0 | 3.0 | 0.00 | 0.00 | 0.00 | 64 | 1017.3 |
| 20260504110503 | 44 | 0 | 0.0 | 2.0 | 0.00 | 0.00 | 0.00 | 83 | 1017.0 |
| 20260504100503 | 45 | 146 | 2.0 | 2.0 | 0.00 | 0.00 | 0.00 | 81 | 1016.5 |
| 20260504082004 | 46 | 145 | 1.0 | 3.0 | 0.00 | 0.00 | 0.00 | 78 | 1016.2 |
| 20260504081503 | 46 | 146 | 1.0 | 3.0 | 0.00 | 0.00 | 0.00 | 78 | 1016.1 |
| 20260504081003 | 47 | 146 | 0.0 | 2.0 | 0.00 | 0.00 | 0.00 | 77 | 1016.0 |
| 20260504080525 | 47 | 146 | 0.0 | 2.0 | 0.00 | 0.00 | 0.00 | 77 | 1016.1 |
| 20260504050502 | 51 | 153 | 0.0 | 2.0 | 0.00 | 0.00 | 0.00 | 68 | 1016.5 |
| 20260504050003 | 52 | 0 | 0.0 | 4.0 | 0.00 | 0.00 | 0.00 | 67 | 1016.6 |
| 20260504045502 | 52 | 153 | 0.0 | 5.0 | 0.00 | 0.00 | 0.00 | 67 | 1016.5 |
| 20260504045023 | 52 | 161 | 2.0 | 5.0 | 0.00 | 0.00 | 0.00 | 67 | 1016.5 |
| 20260504044502 | 52 | 174 | 2.0 | 5.0 | 0.00 | 0.00 | 0.00 | 65 | 1016.5 |
| 20260504044002 | 52 | 159 | 1.0 | 4.0 | 0.00 | 0.00 | 0.00 | 67 | 1016.6 |
| 20260504043523 | 52 | 156 | 2.0 | 5.0 | 0.00 | 0.00 | 0.00 | 67 | 1016.6 |
| 20260504043024 | 52 | 157 | 3.0 | 5.0 | 0.00 | 0.00 | 0.00 | 65 | 1016.6 |
| 20260504042503 | 52 | 149 | 3.0 | 5.0 | 0.00 | 0.00 | 0.00 | 65 | 1016.7 |
| 20260504042023 | 52 | 148 | 2.0 | 3.0 | 0.00 | 0.00 | 0.00 | 65 | 1016.7 |
| 20260504041503 | 52 | 148 | 1.0 | 2.0 | 0.00 | 0.00 | 0.00 | 65 | 1016.8 |
| 20260504041023 | 53 | 148 | 0.0 | 2.0 | 0.00 | 0.00 | 0.00 | 64 | 1016.9 |
| 20260504040503 | 53 | 148 | 1.0 | 2.0 | 0.00 | 0.00 | 0.00 | 63 | 1017.0 |
| 20260504040002 | 54 | 148 | 0.0 | 3.0 | 0.00 | 0.00 | 0.00 | 63 | 1016.9 |
| 20260504035503 | 54 | 148 | 0.0 | 6.0 | 0.00 | 0.00 | 0.00 | 62 | 1016.9 |
| 20260504035023 | 53 | 174 | 2.0 | 6.0 | 0.00 | 0.00 | 0.00 | 62 | 1016.9 |
| 20260504034502 | 53 | 179 | 1.0 | 3.0 | 0.00 | 0.00 | 0.00 | 63 | 1016.9 |
| 20260504034003 | 53 | 184 | 0.0 | 3.0 | 0.00 | 0.00 | 0.00 | 63 | 1016.9 |
| 20260504033503 | 53 | 184 | 2.0 | 4.0 | 0.00 | 0.00 | 0.00 | 62 | 1017.0 |
| 20260504033024 | 53 | 184 | 1.0 | 4.0 | 0.00 | 0.00 | 0.00 | 62 | 1017.0 |
| 20260504032503 | 53 | 224 | 1.0 | 2.0 | 0.00 | 0.00 | 0.00 | 62 | 1016.9 |
| 20260504032002 | 54 | 224 | 1.0 | 2.0 | 0.00 | 0.00 | 0.00 | 61 | 1017.0 |
| 20260504031502 | 54 | 224 | 1.0 | 2.0 | 0.00 | 0.00 | 0.00 | 61 | 1016.9 |
| 20260504031003 | 54 | 224 | 0.0 | 1.0 | 0.00 | 0.00 | 0.00 | 61 | 1017.0 |
| 20260504030502 | 54 | 0 | 0.0 | 2.0 | 0.00 | 0.00 | 0.00 | 60 | 1016.9 |
| 20260504030002 | 54 | 224 | 0.0 | 2.0 | 0.00 | 0.00 | 0.00 | 60 | 1016.9 |
| 20260504025502 | 54 | 224 | 1.0 | 2.0 | 0.00 | 0.00 | 0.00 | 60 | 1016.9 |
| 20260504025003 | 55 | 224 | 1.0 | 3.0 | 0.00 | 0.00 | 0.00 | 59 | 1016.8 |
| 20260504024502 | 55 | 224 | 1.0 | 3.0 | 0.00 | 0.00 | 0.00 | 58 | 1016.8 |
| 20260504024024 | 55 | 154 | 0.0 | 2.0 | 0.00 | 0.00 | 0.00 | 58 | 1016.8 |
| 20260504023503 | 56 | 154 | 1.0 | 4.0 | 0.00 | 0.00 | 0.00 | 57 | 1016.6 |
| 20260504023002 | 56 | 154 | 1.0 | 5.0 | 0.00 | 0.00 | 0.00 | 57 | 1016.6 |
| 20260504022502 | 55 | 156 | 3.0 | 5.0 | 0.00 | 0.00 | 0.00 | 57 | 1016.5 |
| 20260504022003 | 55 | 144 | 2.0 | 4.0 | 0.00 | 0.00 | 0.00 | 57 | 1016.5 |
| 20260504021502 | 55 | 144 | 2.0 | 2.0 | 0.00 | 0.00 | 0.00 | 57 | 1016.5 |
| 20260504021023 | 56 | 144 | 0.0 | 2.0 | 0.00 | 0.00 | 0.00 | 56 | 1016.4 |
| 20260504020502 | 56 | 144 | 0.0 | 3.0 | 0.00 | 0.00 | 0.00 | 56 | 1016.3 |
| 20260504020003 | 56 | 144 | 0.0 | 3.0 | 0.00 | 0.00 | 0.00 | 55 | 1016.3 |
| 20260504015502 | 56 | 0 | 0.0 | 2.0 | 0.00 | 0.00 | 0.00 | 55 | 1016.3 |
| 20260504015024 | 56 | 144 | 0.0 | 4.0 | 0.00 | 0.00 | 0.00 | 53 | 1016.2 |
| 20260504014502 | 56 | 144 | 2.0 | 5.0 | 0.00 | 0.00 | 0.00 | 55 | 1016.2 |
| 20260504014024 | 56 | 151 | 2.0 | 7.0 | 0.00 | 0.00 | 0.00 | 53 | 1016.1 |
| 20260504013503 | 56 | 150 | 3.0 | 7.0 | 0.00 | 0.00 | 0.00 | 52 | 1016.0 |
| 20260504013002 | 56 | 137 | 3.0 | 7.0 | 0.00 | 0.00 | 0.00 | 52 | 1016.1 |
| 20260504012502 | 57 | 135 | 2.0 | 5.0 | 0.00 | 0.00 | 0.00 | 52 | 1016.0 |
| 20260504012003 | 57 | 135 | 2.0 | 5.0 | 0.00 | 0.00 | 0.00 | 51 | 1016.0 |
| 20260504011503 | 57 | 144 | 2.0 | 5.0 | 0.00 | 0.00 | 0.00 | 50 | 1016.1 |
| 20260504011003 | 58 | 144 | 2.0 | 4.0 | 0.00 | 0.00 | 0.00 | 49 | 1016.0 |
| 20260504010525 | 58 | 144 | 1.0 | 5.0 | 0.00 | 0.00 | 0.00 | 49 | 1015.9 |
| 20260504010003 | 58 | 139 | 1.0 | 5.0 | 0.00 | 0.00 | 0.00 | 48 | 1015.9 |
| 20260504005503 | 58 | 135 | 2.0 | 3.0 | 0.00 | 0.00 | 0.00 | 47 | 1015.9 |
| 20260504005003 | 59 | 0 | 0.0 | 3.0 | 0.00 | 0.00 | 0.00 | 47 | 1015.8 |
| 20260504004502 | 59 | 154 | 1.0 | 4.0 | 0.00 | 0.00 | 0.00 | 46 | 1015.8 |
| 20260504004002 | 59 | 151 | 2.0 | 5.0 | 0.00 | 0.00 | 0.00 | 46 | 1015.7 |
| 20260504003502 | 59 | 161 | 2.0 | 5.0 | 0.00 | 0.00 | 0.00 | 45 | 1015.7 |
| 20260504003004 | 60 | 173 | 0.0 | 6.0 | 0.00 | 0.00 | 0.00 | 43 | 1015.7 |
| 20260504002502 | 60 | 174 | 1.0 | 6.0 | 0.00 | 0.00 | 0.00 | 44 | 1015.6 |
| 20260504002003 | 61 | 174 | 1.0 | 2.0 | 0.00 | 0.00 | 0.00 | 41 | 1015.5 |
| 20260504001502 | 61 | 174 | 0.0 | 2.0 | 0.00 | 0.00 | 0.00 | 41 | 1015.4 |
| 20260504001004 | 62 | 0 | 0.0 | 4.0 | 0.00 | 0.00 | 0.00 | 40 | 1015.4 |
| 20260504000524 | 62 | 160 | 0.0 | 4.0 | 0.00 | 0.00 | 0.00 | 39 | 1015.4 |
| 20260504000002 | 63 | 214 | 1.0 | 3.0 | 0.00 | 0.00 | 0.00 | 38 | 1015.2 |
| 20260503235503 | 64 | 168 | 1.0 | 7.0 | 0.00 | 0.00 | 0.00 | 37 | 1015.2 |
| 20260503235024 | 64 | 246 | 1.0 | 7.0 | 0.00 | 0.00 | 0.00 | 36 | 1015.2 |
| 20260503234503 | 65 | 211 | 3.0 | 7.0 | 0.00 | 0.00 | 0.00 | 35 | 1015.3 |
| 20260503234003 | 65 | 240 | 2.0 | 7.0 | 0.00 | 0.00 | 0.00 | 36 | 1015.2 |
| 20260503233503 | 65 | 227 | 2.0 | 7.0 | 0.00 | 0.00 | 0.00 | 36 | 1015.2 |
| 20260503233003 | 66 | 196 | 4.0 | 7.0 | 0.00 | 0.00 | 0.00 | 34 | 1015.2 |
| 20260503232524 | 66 | 156 | 4.0 | 7.0 | 0.00 | 0.00 | 0.00 | 34 | 1015.2 |
| 20260503232003 | 66 | 182 | 3.0 | 8.0 | 0.00 | 0.00 | 0.00 | 34 | 1015.2 |
| 20260503231504 | 66 | 151 | 3.0 | 9.0 | 0.00 | 0.00 | 0.00 | 34 | 1015.2 |
| 20260503231003 | 66 | 146 | 3.0 | 9.0 | 0.00 | 0.00 | 0.00 | 34 | 1015.2 |
| 20260503230502 | 66 | 163 | 5.0 | 9.0 | 0.00 | 0.00 | 0.00 | 33 | 1015.1 |
| 20260503230004 | 66 | 223 | 2.0 | 8.0 | 0.00 | 0.00 | 0.00 | 34 | 1015.1 |
| 20260503225503 | 66 | 164 | 5.0 | 7.0 | 0.00 | 0.00 | 0.00 | 34 | 1015.3 |
| 20260503225003 | 66 | 220 | 2.0 | 7.0 | 0.00 | 0.00 | 0.00 | 33 | 1015.3 |
| 20260503224502 | 66 | 170 | 4.0 | 7.0 | 0.00 | 0.00 | 0.00 | 32 | 1015.2 |
| 20260503224002 | 67 | 208 | 3.0 | 9.0 | 0.00 | 0.00 | 0.00 | 32 | 1015.3 |
| 20260503223525 | 67 | 202 | 3.0 | 9.0 | 0.00 | 0.00 | 0.00 | 32 | 1015.3 |
| 20260503223002 | 67 | 223 | 3.0 | 7.0 | 0.00 | 0.00 | 0.00 | 32 | 1015.3 |
| 20260503222503 | 67 | 248 | 3.0 | 8.0 | 0.00 | 0.00 | 0.00 | 32 | 1015.3 |
| 20260503222003 | 67 | 196 | 4.0 | 10.0 | 0.00 | 0.00 | 0.00 | 32 | 1015.4 |
| 20260503221503 | 67 | 210 | 3.0 | 10.0 | 0.00 | 0.00 | 0.00 | 32 | 1015.4 |
| 20260503221003 | 67 | 233 | 3.0 | 10.0 | 0.00 | 0.00 | 0.00 | 32 | 1015.4 |
| 20260503220503 | 67 | 230 | 1.0 | 3.0 | 0.00 | 0.00 | 0.00 | 31 | 1015.4 |
| 20260503220002 | 67 | 229 | 2.0 | 9.0 | 0.00 | 0.00 | 0.00 | 31 | 1015.5 |
| 20260503215524 | 67 | 208 | 3.0 | 11.0 | 0.00 | 0.00 | 0.00 | 31 | 1015.4 |
| 20260503215003 | 67 | 201 | 4.0 | 11.0 | 0.00 | 0.00 | 0.00 | 31 | 1015.5 |
| 20260503214502 | 68 | 163 | 5.0 | 11.0 | 0.00 | 0.00 | 0.00 | 31 | 1015.6 |
| 20260503214002 | 68 | 219 | 4.0 | 14.0 | 0.00 | 0.00 | 0.00 | 32 | 1015.7 |
| 20260503213502 | 68 | 224 | 5.0 | 14.0 | 0.00 | 0.00 | 0.00 | 30 | 1015.7 |
| 20260503213003 | 69 | 197 | 3.0 | 11.0 | 0.00 | 0.00 | 0.00 | 30 | 1015.8 |
| 20260503212504 | 69 | 203 | 3.0 | 11.0 | 0.00 | 0.00 | 0.00 | 30 | 1015.9 |
| 20260503212003 | 69 | 179 | 3.0 | 7.0 | 0.00 | 0.00 | 0.00 | 28 | 1015.9 |
| 20260503211502 | 69 | 180 | 1.0 | 8.0 | 0.00 | 0.00 | 0.00 | 30 | 1015.9 |
| 20260503211003 | 70 | 252 | 3.0 | 8.0 | 0.00 | 0.00 | 0.00 | 30 | 1016.0 |
| 20260503210504 | 70 | 343 | 2.0 | 7.0 | 0.00 | 0.00 | 0.00 | 28 | 1016.0 |
| 20260503210005 | 70 | 21 | 3.0 | 8.0 | 0.00 | 0.00 | 0.00 | 29 | 1015.9 |
| 20260503205504 | 70 | 85 | 1.0 | 8.0 | 0.00 | 0.00 | 0.00 | 28 | 1016.0 |
| 20260503205002 | 70 | 320 | 2.0 | 7.0 | 0.00 | 0.00 | 0.00 | 31 | 1016.1 |
| 20260503204504 | 70 | 217 | 3.0 | 10.0 | 0.00 | 0.00 | 0.00 | 31 | 1016.1 |
| 20260503204003 | 70 | 228 | 6.0 | 10.0 | 0.00 | 0.00 | 0.00 | 29 | 1016.2 |
| 20260503203503 | 70 | 182 | 5.0 | 8.0 | 0.00 | 0.00 | 0.00 | 31 | 1016.3 |
| 20260503203002 | 70 | 236 | 2.0 | 6.0 | 0.00 | 0.00 | 0.00 | 29 | 1016.2 |
| 20260503202503 | 70 | 154 | 2.0 | 6.0 | 0.00 | 0.00 | 0.00 | 28 | 1016.3 |
| 20260503202003 | 70 | 198 | 2.0 | 12.0 | 0.00 | 0.00 | 0.00 | 29 | 1016.4 |
| 20260503201525 | 69 | 219 | 6.0 | 12.0 | 0.00 | 0.00 | 0.00 | 30 | 1016.4 |
| 20260503201024 | 69 | 223 | 4.0 | 10.0 | 0.00 | 0.00 | 0.00 | 30 | 1016.5 |
| 20260503200504 | 68 | 120 | 3.0 | 13.0 | 0.00 | 0.00 | 0.00 | 28 | 1016.5 |
| 20260503200003 | 68 | 198 | 6.0 | 15.0 | 0.00 | 0.00 | 0.00 | 28 | 1016.6 |
| 20260503195503 | 69 | 219 | 8.0 | 15.0 | 0.00 | 0.00 | 0.00 | 29 | 1016.7 |
| 20260503195002 | 70 | 216 | 5.0 | 11.0 | 0.00 | 0.00 | 0.00 | 30 | 1016.8 |
| 20260503194502 | 69 | 182 | 4.0 | 9.0 | 0.00 | 0.00 | 0.00 | 28 | 1016.7 |
| 20260503194024 | 68 | 204 | 4.0 | 10.0 | 0.00 | 0.00 | 0.00 | 30 | 1016.7 |
| 20260503193504 | 69 | 253 | 2.0 | 12.0 | 0.00 | 0.00 | 0.00 | 29 | 1017.0 |
| 20260503193003 | 68 | 244 | 2.0 | 12.0 | 0.00 | 0.00 | 0.00 | 29 | 1017.1 |
| 20260503192503 | 68 | 213 | 6.0 | 12.0 | 0.00 | 0.00 | 0.00 | 29 | 1017.1 |
| 20260503192003 | 68 | 211 | 5.0 | 12.0 | 0.00 | 0.00 | 0.00 | 30 | 1017.2 |
| 20260503191503 | 69 | 218 | 6.0 | 12.0 | 0.00 | 0.00 | 0.00 | 31 | 1017.3 |
| 20260503191024 | 68 | 162 | 6.0 | 12.0 | 0.00 | 0.00 | 0.00 | 31 | 1017.4 |
| 20260503190503 | 69 | 198 | 5.0 | 12.0 | 0.00 | 0.00 | 0.00 | 29 | 1017.5 |
| 20260503190003 | 68 | 236 | 5.0 | 12.0 | 0.00 | 0.00 | 0.00 | 30 | 1017.6 |
| 20260503185503 | 68 | 151 | 2.0 | 12.0 | 0.00 | 0.00 | 0.00 | 30 | 1017.5 |
| 20260503185003 | 68 | 190 | 3.0 | 11.0 | 0.00 | 0.00 | 0.00 | 30 | 1017.7 |
| 20260503184504 | 68 | 219 | 5.0 | 11.0 | 0.00 | 0.00 | 0.00 | 31 | 1017.7 |
| 20260503184003 | 67 | 14 | 3.0 | 8.0 | 0.00 | 0.00 | 0.00 | 31 | 1017.6 |
| 20260503183502 | 67 | 14 | 1.0 | 8.0 | 0.00 | 0.00 | 0.00 | 33 | 1017.9 |
| 20260503183023 | 67 | 20 | 2.0 | 7.0 | 0.00 | 0.00 | 0.00 | 33 | 1017.9 |
| 20260503182503 | 67 | 294 | 4.0 | 12.0 | 0.00 | 0.00 | 0.00 | 29 | 1017.9 |
| 20260503182003 | 66 | 166 | 9.0 | 14.0 | 0.00 | 0.00 | 0.00 | 33 | 1017.9 |
| 20260503181504 | 67 | 190 | 7.0 | 14.0 | 0.00 | 0.00 | 0.00 | 29 | 1018.0 |
| 20260503181002 | 67 | 237 | 2.0 | 7.0 | 0.00 | 0.00 | 0.00 | 31 | 1018.0 |
| 20260503180502 | 67 | 334 | 3.0 | 7.0 | 0.00 | 0.00 | 0.00 | 33 | 1018.1 |
| 20260503180003 | 66 | 53 | 2.0 | 11.0 | 0.00 | 0.00 | 0.00 | 32 | 1018.1 |
| 20260503175503 | 65 | 210 | 2.0 | 12.0 | 0.00 | 0.00 | 0.00 | 32 | 1018.1 |
| 20260503175003 | 66 | 206 | 7.0 | 12.0 | 0.00 | 0.00 | 0.00 | 30 | 1018.2 |
| 20260503174503 | 66 | 222 | 3.0 | 7.0 | 0.00 | 0.00 | 0.00 | 32 | 1018.4 |
| 20260503174003 | 66 | 218 | 2.0 | 6.0 | 0.00 | 0.00 | 0.00 | 32 | 1018.4 |
| 20260503173503 | 66 | 67 | 3.0 | 10.0 | 0.00 | 0.00 | 0.00 | 34 | 1018.5 |
| 20260503173003 | 65 | 201 | 4.0 | 13.0 | 0.00 | 0.00 | 0.00 | 37 | 1018.6 |
| 20260503172503 | 65 | 295 | 2.0 | 13.0 | 0.00 | 0.00 | 0.00 | 34 | 1018.7 |
| 20260503172003 | 65 | 223 | 3.0 | 20.0 | 0.00 | 0.00 | 0.00 | 34 | 1018.8 |
| 20260503171524 | 64 | 223 | 7.0 | 20.0 | 0.00 | 0.00 | 0.00 | 33 | 1018.9 |
| 20260503171003 | 65 | 216 | 5.0 | 12.0 | 0.00 | 0.00 | 0.00 | 33 | 1019.0 |
| 20260503170503 | 64 | 221 | 2.0 | 10.0 | 0.00 | 0.00 | 0.00 | 38 | 1018.9 |
| 20260503151003 | 61 | 226 | 2.0 | 12.0 | 0.00 | 0.00 | 0.00 | 39 | 1020.2 |
| 20260503150503 | 60 | 23 | 3.0 | 12.0 | 0.00 | 0.00 | 0.00 | 39 | 1020.3 |